Location: ?????
(30.1667°N, 31.1000°E)
Time: 04:14:44
(UTC+00:00)

Daily predictions for brighter satellites

Satellite Brightness Start Highest point End
(mag) Time Altitude Azimuth Time Altitude Azimuth Time Altitude Azimuth
CZ-3 R/B 4.5 00:50:27 41° SSW 00:56:38 46° SSE 01:07:57 10° E
H-2A R/B 4.4 00:18:31 10° WSW 01:21:24 86° SSE 01:29:19 10° ENE
ALOS 4.3 01:33:51 10° NE 01:36:15 24° ENE 01:36:15 24° ENE
USA 234 3.3 01:37:04 10° SE 01:43:30 72° NE 01:43:30 72° NE
Meteosat 1 Rocket2 4.3 01:49:04 76° SSE 01:49:04 76° SSE 01:55:05 10° ESE
CZ-4C R/B 3.7 01:57:44 21° SE 01:59:13 25° ESE 02:03:18 10° NE
Delta 2 Rocket 4.5 02:08:25 48° NNE 02:08:25 48° NNE 02:12:32 10° ENE
Lacrosse 4 Rocket 4.5 02:07:39 10° NNE 02:10:08 15° ENE 02:12:33 10° E
OAO 3 Rocket 3.6 02:12:36 61° ENE 02:12:36 61° ENE 02:16:37 10° ENE
Cosmos 2322 Rocket 2.4 02:08:17 16° NNW 02:12:54 69° ENE 02:18:33 10° SSE
X-37B 3.3 02:16:02 20° E 02:16:02 20° E 02:17:14 10° ESE
Exosat Rocket 4.4 02:05:50 10° NNW 02:15:16 69° WSW 02:21:43 10° S
Cosmos 2344 3.7 02:15:32 48° WNW 02:15:44 48° WNW 02:22:59 10° NNE
Milstar 3 Cent rocket 1.9 02:20:19 65° S 02:20:19 65° S 02:24:53 10° E
Cosmos 1386 Rocket 4.4 02:19:35 10° N 02:25:57 72° W 02:32:10 10° S
Cosmos 1302 Rocket 4.0 02:27:22 60° SW 02:27:22 60° SW 02:31:56 10° S
Cosmos 1500 Rocket 3.4 02:26:19 10° N 02:30:41 89° ENE 02:35:04 10° S
Sakura Rocket 3.0 02:31:59 61° SE 02:31:59 61° SE 02:35:13 10° E
Fregat R/B Cluster 11 4.1 02:31:19 72° WSW 02:31:39 79° WNW 02:41:30 10° NNE
Cosmos 883 Rocket 4.3 02:28:37 25° SSW 02:32:18 67° W 02:38:25 10° N
H-2A R/B 3.0 02:28:15 10° SSE 02:32:24 48° ENE 02:36:28 10° N
Skynet4D Del rocket 4.1 02:31:22 40° SSW 02:32:28 46° SSE 02:37:33 10° E
Cosmos 1606 4.2 02:36:07 27° N 02:36:07 27° N 02:37:58 10° N
SL-16 R/B 2.3 02:37:38 47° WNW 02:38:26 51° WSW 02:43:52 10° S
BREEZE-M DEB (TANK) 4.3 02:42:05 18° N 02:43:19 25° NE 02:47:23 10° ESE
Cosmos 2315 Rocket 3.9 02:37:55 10° SSW 02:44:04 66° W 02:50:14 10° N
Cosmos 2251 Rocket 3.6 02:43:17 44° WSW 02:44:27 52° WNW 02:49:41 10° N
Cosmos 1151 Rocket 4.4 02:44:03 10° SSE 02:48:06 40° E 02:52:08 10° NNE
SeaSat 1 3.7 02:46:12 10° SE 02:50:48 42° ENE 02:55:26 10° N
Lacrosse 5 4.5 02:48:25 10° N 02:51:24 15° NE 02:54:21 10° ENE
ATLAS 5 CENTAUR R/B 1.5 02:49:36 23° SSW 02:51:50 65° ESE 02:55:49 10° NE
Alouette 2 Rocket 4.3 02:47:15 10° S 02:52:03 87° WNW 02:59:36 10° N
CZ-4B R/B 3.9 02:50:06 10° SE 02:52:36 22° ENE 02:55:04 10° NNE
ASTRO E2 2.6 02:56:41 46° W 02:57:41 70° SSW 03:01:39 10° ESE
CZ-4B R/B 4.0 02:54:28 10° NNE 02:58:52 51° E 03:03:13 10° S
Cosmos 2237 4.1 02:54:51 10° NNW 03:00:31 67° WSW 03:06:09 10° S
Meteor 2-17 Rocket 4.3 02:56:26 10° N 03:02:29 76° W 03:08:30 10° S
GPS 2-04 Rocket1 3.1 03:09:41 28° WNW 03:11:12 45° NNW 03:14:58 10° ENE
ALOS 3.7 03:11:55 10° NNW 03:14:46 19° WNW 03:14:46 19° WNW
Meteor 1-31 Rocket 3.3 03:13:54 10° N 03:17:26 35° WNW 03:20:55 10° SW
Cosmos 1328 Rocket 3.6 03:13:11 10° S 03:17:28 79° E 03:21:47 10° N
Cosmos 407 Rocket 3.4 03:12:20 10° SSW 03:17:33 75° WNW 03:22:43 10° NNE
MOS 1 Rocket 3.1 03:13:27 10° SSE 03:17:44 85° ENE 03:22:08 10° N
Cosmos 2074 Rocket 4.5 03:14:35 10° N 03:20:45 65° E 03:26:53 10° SSE
Cosmos 2333 4.4 03:17:27 10° NNW 03:23:16 81° ENE 03:29:02 10° SSE
H-2A R/B 2.6 03:19:34 10° N 03:23:26 84° WNW 03:27:15 10° SSW
COSMO-SKYMED 1 2.5 03:19:35 10° SSE 03:23:55 87° WSW 03:28:16 10° NNW
Cosmos 1190 Rocket 4.0 03:19:42 10° SSW 03:25:00 86° WNW 03:30:20 10° NNE
Cosmos 2360 Rocket 2.4 03:20:27 10° NNW 03:25:51 47° WSW 03:31:13 10° S
USA 234 4.3 03:21:53 10° S 03:26:47 23° WSW 03:30:55 13° WNW
Cosmos 1782 2.7 03:25:02 10° SSW 03:28:56 70° W 03:32:52 10° N
Cosmos 1805 Rocket 4.2 03:26:53 10° NNW 03:30:52 33° W 03:34:51 10° SSW
Iridium 51 4.1 03:28:24 10° N 03:32:03 56° W 03:35:30 10° SSW
Cosmos 1437 Rocket 2.9 03:28:08 10° SSW 03:32:10 58° W 03:36:12 10° N
Meteor 1-26 Rocket 4.2 03:27:48 10° SSW 03:33:19 64° W 03:39:03 10° N
CENTAUR R/B 3.8 03:25:08 10° NNW 03:33:37 66° ENE 03:42:28 10° SE
CSL-04 DEB 4.4 03:33:31 10° S 03:37:29 58° WSW 03:41:25 10° NNW
NOSS 3-4 (A) 3.7 03:32:56 10° SW 03:38:23 41° NW 03:44:04 10° NNE
NOSS 3-4 (C) 3.7 03:33:01 10° SW 03:38:28 42° NW 03:44:10 10° NNE
Cosmos 2227 Rocket 3.5 03:34:54 10° S 03:40:15 45° ESE 03:45:38 10° NNE
YAOGAN 6 2.4 03:36:48 10° N 03:40:16 74° WNW 03:43:43 10° SSW
Cosmos 2333 Rocket 2.3 03:34:59 10° NNW 03:40:47 89° WSW 03:46:32 10° SSE
PSLV R/B 4.5 03:37:17 10° NNE 03:41:10 59° E 03:44:55 10° S
Cosmos 2184 Rocket 4.0 03:36:40 10° N 03:43:01 83° W 03:49:23 10° S
deb Chang Zheng 4 3.9 03:42:49 10° N 03:46:52 43° WNW 03:50:57 10° SW
CZ-4C R/B 2.9 03:43:31 10° WSW 03:47:28 26° NW 03:51:57 10° N
Okean O Rocket 4.3 03:44:37 10° NE 03:48:17 25° E 03:51:56 10° SSE
Lacrosse 4 Rocket 1.9 03:44:49 10° NW 03:48:58 40° WSW 03:53:00 10° S
Meteosat 1 Rocket2 4.5 03:42:49 10° W 03:49:33 39° SSW 03:54:10 10° SE
X-37B 2.4 03:48:33 10° W 03:50:41 17° SW 03:52:47 10° S
ATLAS 2AS CENTAUR R/B 3.1 03:45:10 10° SW 03:52:53 60° WNW 04:00:41 10° NNE
Cosmos 1666 Rocket 3.9 03:49:56 10° NNW 03:54:02 41° W 03:58:10 10° SSW
Envisat 3.1 03:49:53 10° N 03:54:51 57° WNW 03:59:48 10° SSW
OAO 3 Rocket 3.8 03:50:54 10° WNW 03:55:35 47° N 04:00:11 10° ENE
PSLV R/B 4.0 03:51:55 10° SSE 03:56:07 88° ENE 04:00:18 10° NNW
Cosmos 2297 Rocket 2.3 03:50:31 10° SSW 03:56:08 86° ESE 04:01:49 10° NNE
Timation 2 Rocket 4.4 03:49:22 10° SSW 03:56:14 81° ESE 04:03:05 10° NNE
